GW3437 Weather Reports


Display with metric or nautical units.
time (UTC)temp
F
wind
direction
speed
MPH
gust
MPH
rain 1hr
in
rain 24hr
in
rain mn
in
humidity
%
barometer
mb
20260903053011 87 221 2.0 4.0 0.00 0.00 0.00 54 1014.8
20260903052506 87 176 7.0 15.0 0.00 0.00 0.00 53 1014.9
20260903052001 87 201 4.0 9.0 0.00 0.00 0.00 53 1014.6
20260903051456 87 249 2.0 4.0 0.00 0.00 0.00 52 1014.8
20260903050952 87 197 4.0 7.0 0.00 0.00 0.00 52 1014.7
20260903050451 87 185 2.0 4.0 0.00 0.00 0.00 51 1014.8
20260903045946 88 129 0.0 3.0 0.00 0.00 0.00 51 1014.6
20260903045441 88 172 2.0 4.0 0.00 0.00 0.00 50 1014.3
20260903044938 88 208 4.0 7.0 0.00 0.00 0.00 50 1014.7
20260903044433 88 200 2.0 4.0 0.00 0.00 0.00 50 1014.4
20260903043929 88 161 1.0 4.0 0.00 0.00 0.00 49 1014.4
20260903043425 88 195 1.0 4.0 0.00 0.00 0.00 49 1014.7
20260903042923 88 174 0.0 1.0 0.00 0.00 0.00 49 1014.6
20260903042419 89 166 1.0 7.0 0.00 0.00 0.00 49 1014.6
20260903041914 89 190 0.0 4.0 0.00 0.00 0.00 48 1014.7
20260903041410 89 213 1.0 4.0 0.00 0.00 0.00 48 1014.6
20260903040906 89 175 3.0 9.0 0.00 0.00 0.00 47 1014.6
20260903040405 89 177 2.0 7.0 0.00 0.00 0.00 47 1014.7
20260903035901 89 68 1.0 7.0 0.00 0.00 0.00 47 1014.4
20260903035356 89 173 1.0 4.0 0.00 0.00 0.00 47 1014.4
20260903034851 90 168 1.0 6.0 0.00 0.00 0.00 46 1014.8
20260903034346 90 203 5.0 6.0 0.00 0.00 0.00 46 1014.6
20260903033836 90 196 2.0 2.0 0.00 0.00 0.00 46 1014.7
20260903033331 90 184 3.0 3.0 0.00 0.00 0.00 46 1014.8
20260903032831 90 237 1.0 3.0 0.00 0.00 0.00 46 1014.8
20260903032327 90 138 1.0 3.0 0.00 0.00 0.00 45 1014.7
20260903031822 90 130 2.0 7.0 0.00 0.00 0.00 45 1014.4
20260903031321 90 131 1.0 2.0 0.00 0.00 0.00 44 1014.6
20260903030817 90 57 1.0 2.0 0.00 0.00 0.00 44 1014.8
20260903030313 90 135 0.0 6.0 0.00 0.00 0.00 44 1014.6
20260903025808 90 211 1.0 6.0 0.00 0.00 0.00 44 1014.7
20260903025306 90 140 0.0 0.0 0.00 0.00 0.00 44 1014.4
20260903024758 91 140 1.0 2.0 0.00 0.00 0.00 44 1014.4
20260903024258 91 161 1.0 1.0 0.00 0.00 0.00 43 1014.6
20260903023753 91 152 0.0 1.0 0.00 0.00 0.00 43 1014.4
20260903023249 91 144 0.0 1.0 0.00 0.00 0.00 43 1014.2
20260903022748 91 178 2.0 2.0 0.00 0.00 0.00 43 1014.3
20260903022247 91 128 1.0 1.0 0.00 0.00 0.00 43 1014.2
20260903021748 92 283 1.0 3.0 0.00 0.00 0.00 43 1014.3
20260903021243 92 130 1.0 2.0 0.00 0.00 0.00 43 1014.0
20260903020742 92 140 0.0 1.0 0.00 0.00 0.00 43 1014.0
20260903020237 92 71 1.0 3.0 0.00 0.00 0.00 43 1013.9
20260903015733 92 170 1.0 3.0 0.00 0.00 0.00 43 1014.0
20260903015228 92 141 0.0 1.0 0.00 0.00 0.00 43 1013.9
20260903014723 92 110 0.0 1.0 0.00 0.00 0.00 43 1013.8
20260903014222 93 134 0.0 1.0 0.00 0.00 0.00 42 1013.7
20260903013717 93 155 0.0 1.0 0.00 0.00 0.00 42 1013.7
20260903013217 93 144 0.0 0.0 0.00 0.00 0.00 42 1013.5
20260903012715 93 145 1.0 3.0 0.00 0.00 0.00 41 1013.6
20260903012210 94 154 0.0 2.0 0.00 0.00 0.00 41 1013.4
20260903011710 94 178 0.0 1.0 0.00 0.00 0.00 40 1013.7
20260903011204 94 150 0.0 2.0 0.00 0.00 0.00 40 1013.4
20260903010659 94 141 0.0 2.0 0.00 0.00 0.00 40 1013.4
20260903010159 95 91 0.0 1.0 0.00 0.00 0.00 40 1013.5
20260903005653 95 139 0.0 1.0 0.00 0.00 0.00 39 1013.2
20260903005148 95 209 2.0 4.0 0.00 0.00 0.00 38 1013.2
20260903004643 96 130 0.0 3.0 0.00 0.00 0.00 38 1013.2
20260903004138 96 150 0.0 7.0 0.00 0.00 0.00 37 1013.2
20260903003634 96 210 0.0 3.0 0.00 0.00 0.00 38 1013.2
20260903003129 97 216 4.0 6.0 0.00 0.00 0.00 37 1013.4
20260903002624 97 198 5.0 7.0 0.00 0.00 0.00 37 1013.3
20260903002118 98 192 1.0 2.0 0.00 0.00 0.00 35 1013.2
20260903001613 98 137 0.0 2.0 0.00 0.00 0.00 35 1013.2
20260903001112 99 86 0.0 3.0 0.00 0.00 0.00 35 1013.2
20260903000609 98 181 3.0 4.0 0.00 0.00 0.00 35 1013.1
20260903000108 98 177 4.0 11.0 0.00 0.00 0.00 36 1013.2
20260902235606 99 206 2.0 2.0 0.00 0.00 0.00 35 1013.2
20260902235102 99 187 5.0 7.0 0.00 0.00 0.00 35 1013.1
20260902234556 99 165 1.0 6.0 0.00 0.00 0.00 34 1013.3
20260902234054 100 258 2.0 4.0 0.00 0.00 0.00 34 1013.3
20260902233549 100 193 0.0 2.0 0.00 0.00 0.00 34 1013.1
20260902233044 100 183 4.0 6.0 0.00 0.00 0.00 34 1013.2
20260902232543 100 182 1.0 3.0 0.00 0.00 0.00 34 1013.2
20260902232037 100 219 0.0 4.0 0.00 0.00 0.00 33 1013.3
20260902231532 100 188 6.0 8.0 0.00 0.00 0.00 33 1013.4
20260902231027 101 0 1.0 6.0 0.00 0.00 0.00 33 1013.0
20260902230527 101 238 3.0 4.0 0.00 0.00 0.00 33 1013.2
20260902230021 101 194 1.0 3.0 0.00 0.00 0.00 33 1013.2
20260902225516 101 74 2.0 3.0 0.00 0.00 0.00 33 1013.3
20260902225010 101 242 2.0 2.0 0.00 0.00 0.00 32 1013.3
20260902224509 100 147 2.0 4.0 0.00 0.00 0.00 33 1013.4
20260902224005 101 220 5.0 9.0 0.00 0.00 0.00 33 1013.4
20260902223500 102 21 1.0 2.0 0.00 0.00 0.00 33 1013.5
20260902222954 100 248 1.0 3.0 0.00 0.00 0.00 33 1013.3
20260902222453 100 167 1.0 3.0 0.00 0.00 0.00 33 1013.7
20260902221947 101 200 1.0 3.0 0.00 0.00 0.00 32 1013.6
20260902221445 102 203 2.0 4.0 0.00 0.00 0.00 31 1013.5
20260902220941 102 139 1.0 3.0 0.00 0.00 0.00 32 1013.6
20260902220441 102 198 6.0 7.0 0.00 0.00 0.00 32 1013.7
20260902215936 101 158 1.0 9.0 0.00 0.00 0.00 34 1013.6
20260902215432 100 200 4.0 4.0 0.00 0.00 0.00 33 1013.6
20260902214928 101 51 2.0 3.0 0.00 0.00 0.00 33 1013.7
20260902214426 100 214 3.0 6.0 0.00 0.00 0.00 34 1013.8
20260902213921 99 137 0.0 3.0 0.00 0.00 0.00 36 1013.7
20260902213417 101 196 3.0 8.0 0.00 0.00 0.00 34 1013.9
20260902212910 100 96 1.0 7.0 0.00 0.00 0.00 35 1013.9
20260902212406 102 151 1.0 4.0 0.00 0.00 0.00 33 1013.9
20260902211902 102 108 1.0 6.0 0.00 0.00 0.00 34 1013.9
20260902211357 101 140 2.0 4.0 0.00 0.00 0.00 35 1014.1
20260902210847 102 72 2.0 2.0 0.00 0.00 0.00 34 1013.9
20260902210346 102 274 1.0 6.0 0.00 0.00 0.00 33 1014.2
20260902205845 102 122 2.0 7.0 0.00 0.00 0.00 34 1014.1
20260902205339 101 174 0.0 7.0 0.00 0.00 0.00 34 1014.3
20260902204835 101 224 0.0 3.0 0.00 0.00 0.00 35 1014.4
20260902204330 102 206 2.0 6.0 0.00 0.00 0.00 35 1014.7
20260902203825 104 201 6.0 11.0 0.00 0.00 0.00 34 1014.7
20260902203320 102 322 0.0 4.0 0.00 0.00 0.00 33 1014.7
20260902202820 102 207 3.0 8.0 0.00 0.00 0.00 35 1014.7
20260902202316 104 126 2.0 6.0 0.00 0.00 0.00 33 1014.9
20260902201812 103 297 0.0 2.0 0.00 0.00 0.00 33 1014.8
20260902201307 103 173 1.0 3.0 0.00 0.00 0.00 35 1014.9
20260902200803 103 208 2.0 6.0 0.00 0.00 0.00 35 1015.2
20260902200257 103 160 6.0 9.0 0.00 0.00 0.00 34 1015.0
20260902195753 102 211 2.0 4.0 0.00 0.00 0.00 35 1015.2
20260902195252 100 262 7.0 9.0 0.00 0.00 0.00 36 1015.3
20260902194751 102 174 7.0 14.0 0.00 0.00 0.00 36 1015.4
20260902194247 101 140 2.0 8.0 0.00 0.00 0.00 35 1015.1
20260902193742 102 30 1.0 3.0 0.00 0.00 0.00 35 1015.5
20260902193238 102 227 5.0 7.0 0.00 0.00 0.00 34 1015.4
20260902192736 102 62 3.0 4.0 0.00 0.00 0.00 36 1015.5
20260902192235 103 153 3.0 4.0 0.00 0.00 0.00 36 1015.6
20260902191730 102 10 2.0 4.0 0.00 0.00 0.00 36 1015.6
20260902191225 101 178 4.0 9.0 0.00 0.00 0.00 37 1015.7
20260902190720 100 177 4.0 8.0 0.00 0.00 0.00 37 1015.8
20260902190220 100 157 4.0 10.0 0.00 0.00 0.00 37 1015.8
20260902185716 100 175 5.0 6.0 0.00 0.00 0.00 37 1015.9
20260902185212 100 205 3.0 8.0 0.00 0.00 0.00 37 1016.0
20260902184707 99 189 2.0 7.0 0.00 0.00 0.00 38 1016.0
20260902184203 100 137 6.0 10.0 0.00 0.00 0.00 37 1016.1
20260902183658 100 201 4.0 4.0 0.00 0.00 0.00 37 1016.3
20260902183155 99 114 0.0 4.0 0.00 0.00 0.00 37 1016.5
20260902182650 99 243 2.0 8.0 0.00 0.00 0.00 37 1016.4
20260902182147 100 174 5.0 7.0 0.00 0.00 0.00 37 1016.5
20260902181642 100 176 4.0 10.0 0.00 0.00 0.00 38 1016.8
20260902181141 98 28 2.0 3.0 0.00 0.00 0.00 38 1016.8
20260902180636 100 313 2.0 9.0 0.00 0.00 0.00 38 1016.8
20260902180132 100 158 2.0 2.0 0.00 0.00 0.00 37 1016.9
20260902175631 99 207 11.0 13.0 0.00 0.00 0.00 39 1017.1
20260902175127 98 59 2.0 6.0 0.00 0.00 0.00 39 1017.1
20260902174623 98 177 2.0 3.0 0.00 0.00 0.00 38 1017.2
20260902174119 100 337 1.0 9.0 0.00 0.00 0.00 38 1017.3
20260902173614 100 105 1.0 2.0 0.00 0.00 0.00 38 1017.1
20260902173109 97 186 1.0 2.0 0.00 0.00 0.00 40 1017.4
20260902172603 98 172 6.0 9.0 0.00 0.00 0.00 40 1017.2
20260902172103 98 238 3.0 7.0 0.00 0.00 0.00 40 1017.4
20260902171558 97 206 4.0 7.0 0.00 0.00 0.00 42 1017.5
20260902171054 98 212 4.0 4.0 0.00 0.00 0.00 41 1017.5
20260902170549 96 190 1.0 6.0 0.00 0.00 0.00 43 1017.7
20260902170046 96 196 4.0 4.0 0.00 0.00 0.00 42 1017.7
20260902165545 96 169 1.0 6.0 0.00 0.00 0.00 42 1017.7
20260902165040 96 199 3.0 7.0 0.00 0.00 0.00 43 1017.8
20260902164535 95 213 3.0 8.0 0.00 0.00 0.00 44 1017.8
20260902164034 96 190 4.0 7.0 0.00 0.00 0.00 43 1018.1
20260902163530 95 195 3.0 8.0 0.00 0.00 0.00 45 1018.0
20260902163027 94 221 6.0 8.0 0.00 0.00 0.00 45 1018.1
20260902162522 94 198 6.0 10.0 0.00 0.00 0.00 45 1017.9
20260902162017 95 213 5.0 10.0 0.00 0.00 0.00 46 1018.1
20260902161512 94 232 2.0 6.0 0.00 0.00 0.00 46 1018.1
20260902161008 93 177 3.0 8.0 0.00 0.00 0.00 47 1018.0
20260902160504 93 251 5.0 10.0 0.00 0.00 0.00 48 1017.9
20260902160005 93 187 4.0 6.0 0.00 0.00 0.00 47 1017.9
20260902155456 92 168 5.0 13.0 0.00 0.00 0.00 48 1018.0
20260902154950 92 248 4.0 8.0 0.00 0.00 0.00 49 1018.1
20260902154445 92 219 4.0 6.0 0.00 0.00 0.00 49 1018.1
20260902153940 91 224 7.0 8.0 0.00 0.00 0.00 50 1018.1
20260902153438 90 200 2.0 9.0 0.00 0.00 0.00 51 1018.1
20260902152934 90 199 6.0 11.0 0.00 0.00 0.00 51 1018.3
20260902152429 89 137 2.0 7.0 0.00 0.00 0.00 51 1018.1
20260902151925 89 160 6.0 11.0 0.00 0.00 0.00 52 1018.1
20260902151421 88 179 4.0 9.0 0.00 0.00 0.00 53 1018.3
20260902150915 88 170 9.0 11.0 0.00 0.00 0.00 53 1018.3
20260902150411 87 190 9.0 11.0 0.00 0.00 0.00 54 1018.3
20260902145910 87 185 4.0 10.0 0.00 0.00 0.00 55 1018.1
20260902145406 87 196 4.0 8.0 0.00 0.00 0.00 55 1018.2
20260902144900 87 209 2.0 7.0 0.00 0.00 0.00 55 1018.3
20260902144357 87 219 6.0 8.0 0.00 0.00 0.00 55 1018.1
20260902143851 87 178 3.0 6.0 0.00 0.00 0.00 55 1018.3
20260902143346 86 207 1.0 6.0 0.00 0.00 0.00 56 1018.2
20260902142842 86 168 6.0 9.0 0.00 0.00 0.00 57 1018.3
20260902142338 86 173 6.0 11.0 0.00 0.00 0.00 57 1018.2
20260902141832 86 202 4.0 11.0 0.00 0.00 0.00 58 1018.0
20260902141328 86 242 4.0 8.0 0.00 0.00 0.00 57 1018.2
20260902140827 85 160 4.0 11.0 0.00 0.00 0.00 58 1018.3
20260902140323 85 201 7.0 14.0 0.00 0.00 0.00 59 1018.1
20260902135822 85 201 4.0 10.0 0.00 0.00 0.00 59 1018.1
20260902135318 85 178 4.0 8.0 0.00 0.00 0.00 59 1018.3
20260902134817 85 209 4.0 8.0 0.00 0.00 0.00 59 1018.0
20260902134312 84 192 7.0 10.0 0.00 0.00 0.00 60 1018.0
20260902133807 84 165 5.0 9.0 0.00 0.00 0.00 60 1018.0
20260902133302 84 166 7.0 11.0 0.00 0.00 0.00 60 1018.0
20260902132757 84 162 4.0 8.0 0.00 0.00 0.00 61 1018.0
20260902132252 83 212 5.0 8.0 0.00 0.00 0.00 61 1018.3
20260902131748 83 171 5.0 8.0 0.00 0.00 0.00 62 1018.0
20260902131244 83 210 5.0 7.0 0.00 0.00 0.00 62 1018.1
20260902130744 83 178 5.0 9.0 0.00 0.00 0.00 62 1017.9
20260902130240 83 184 4.0 8.0 0.00 0.00 0.00 62 1018.1
20260902125734 83 175 6.0 7.0 0.00 0.00 0.00 62 1018.0
20260902125231 82 222 4.0 6.0 0.00 0.00 0.00 63 1018.2
20260902124726 82 187 4.0 6.0 0.00 0.00 0.00 63 1017.8
20260902124222 82 175 5.0 8.0 0.00 0.00 0.00 63 1017.9
20260902123716 82 185 4.0 9.0 0.00 0.00 0.00 63 1017.9
20260902123207 82 170 1.0 7.0 0.00 0.00 0.00 63 1017.9
20260902122706 82 198 2.0 10.0 0.00 0.00 0.00 63 1017.7
20260902122202 82 227 2.0 7.0 0.00 0.00 0.00 63 1017.8
20260902121701 82 178 4.0 7.0 0.00 0.00 0.00 63 1017.8
20260902121156 82 178 3.0 9.0 0.00 0.00 0.00 64 1017.4
20260902120652 82 128 3.0 7.0 0.00 0.00 0.00 64 1017.5
20260902120149 81 153 1.0 7.0 0.00 0.00 0.00 64 1017.4
20260902115648 81 183 2.0 2.0 0.00 0.00 0.00 64 1017.5
20260902115144 82 180 0.0 4.0 0.00 0.00 0.00 63 1017.3
20260902114640 81 179 4.0 6.0 0.00 0.00 0.00 63 1017.2
20260902114135 82 147 0.0 2.0 0.00 0.00 0.00 63 1017.2
20260902113631 81 132 3.0 4.0 0.00 0.00 0.00 63 1017.2
20260902113125 81 148 0.0 4.0 0.00 0.00 0.00 63 1017.0
20260902112621 81 146 0.0 1.0 0.00 0.00 0.00 63 1017.2
20260902112118 82 130 1.0 2.0 0.00 0.00 0.00 62 1017.0
20260902111608 82 123 0.0 1.0 0.00 0.00 0.00 62 1016.8
20260902111103 82 196 1.0 2.0 0.00 0.00 0.00 62 1016.9
20260902110559 82 176 1.0 2.0 0.00 0.00 0.00 62 1016.9
20260902110054 82 163 1.0 2.0 0.00 0.00 0.00 61 1016.8
20260902105549 81 179 2.0 3.0 0.00 0.00 0.00 62 1016.8
20260902105049 81 131 0.0 0.0 0.00 0.00 0.00 62 1016.9
20260902104544 82 153 0.0 2.0 0.00 0.00 0.00 61 1016.9
20260902104039 82 149 0.0 2.0 0.00 0.00 0.00 61 1017.0
20260902103535 82 170 0.0 1.0 0.00 0.00 0.00 61 1016.7
20260902103030 82 118 0.0 3.0 0.00 0.00 0.00 60 1016.7
20260902102526 83 172 0.0 2.0 0.00 0.00 0.00 60 1017.0
20260902102023 83 146 1.0 3.0 0.00 0.00 0.00 59 1016.8
20260902101518 82 151 1.0 3.0 0.00 0.00 0.00 60 1016.6
20260902101016 83 137 1.0 2.0 0.00 0.00 0.00 59 1016.6
20260902100511 82 200 2.0 3.0 0.00 0.00 0.00 60 1016.7
20260902100006 83 156 0.0 0.0 0.00 0.00 0.00 60 1016.8
20260902095500 83 192 2.0 4.0 0.00 0.00 0.00 59 1016.8
20260902094959 83 156 0.0 1.0 0.00 0.00 0.00 60 1016.8
20260902094455 83 72 0.0 1.0 0.00 0.00 0.00 60 1016.7
20260902093950 83 186 0.0 3.0 0.00 0.00 0.00 59 1016.7
20260902093445 83 185 0.0 2.0 0.00 0.00 0.00 59 1016.7
20260902092944 83 234 0.0 4.0 0.00 0.00 0.00 59 1016.9
20260902092440 83 166 1.0 2.0 0.00 0.00 0.00 59 1016.7
20260902091939 84 184 2.0 4.0 0.00 0.00 0.00 58 1016.7
20260902091435 84 136 1.0 3.0 0.00 0.00 0.00 58 1016.6
20260902090931 84 172 2.0 4.0 0.00 0.00 0.00 58 1016.8
20260902090432 84 148 1.0 7.0 0.00 0.00 0.00 58 1016.6
20260902085930 84 121 3.0 4.0 0.00 0.00 0.00 58 1016.6
20260902085425 84 129 4.0 6.0 0.00 0.00 0.00 57 1016.4
20260902084921 84 219 1.0 3.0 0.00 0.00 0.00 57 1016.6
20260902084417 84 193 2.0 7.0 0.00 0.00 0.00 57 1016.5
20260902083912 84 185 2.0 6.0 0.00 0.00 0.00 56 1016.4
20260902083407 84 199 2.0 4.0 0.00 0.00 0.00 56 1016.6
20260902082902 84 238 1.0 7.0 0.00 0.00 0.00 56 1016.7
20260902082358 84 180 4.0 6.0 0.00 0.00 0.00 55 1016.6
20260902081854 84 186 2.0 6.0 0.00 0.00 0.00 55 1016.4
20260902081350 84 179 2.0 4.0 0.00 0.00 0.00 55 1016.5
20260902080845 84 137 1.0 4.0 0.00 0.00 0.00 55 1016.6
20260902080341 84 111 0.0 2.0 0.00 0.00 0.00 55 1016.6
20260902075840 84 149 1.0 2.0 0.00 0.00 0.00 54 1016.6
20260902075337 84 174 1.0 2.0 0.00 0.00 0.00 54 1016.7
20260902074832 85 171 2.0 6.0 0.00 0.00 0.00 53 1016.6
20260902074328 85 175 1.0 4.0 0.00 0.00 0.00 53 1016.7
20260902073828 85 133 3.0 4.0 0.00 0.00 0.00 53 1016.7
20260902073324 84 164 0.0 3.0 0.00 0.00 0.00 53 1016.5
20260902072820 85 129 1.0 2.0 0.00 0.00 0.00 53 1016.5
20260902072315 85 169 1.0 3.0 0.00 0.00 0.00 52 1016.6
20260902071812 85 189 2.0 8.0 0.00 0.00 0.00 52 1016.4
20260902071306 85 140 0.0 2.0 0.00 0.00 0.00 52 1016.7
20260902070803 85 157 1.0 2.0 0.00 0.00 0.00 52 1016.7
20260902070302 85 152 0.0 3.0 0.00 0.00 0.00 52 1016.7
20260902065800 85 93 0.0 1.0 0.00 0.00 0.00 52 1016.7
20260902065251 85 94 1.0 1.0 0.00 0.00 0.00 52 1016.6
20260902064747 85 143 0.0 3.0 0.00 0.00 0.00 52 1016.6
20260902064242 85 140 1.0 2.0 0.00 0.00 0.00 51 1016.7
20260902063737 86 208 0.0 2.0 0.00 0.00 0.00 51 1016.5
20260902063237 86 175 0.0 2.0 0.00 0.00 0.00 51 1016.6
20260902062732 86 209 2.0 4.0 0.00 0.00 0.00 51 1016.5
20260902062227 86 186 0.0 1.0 0.00 0.00 0.00 51 1016.7
20260902061725 86 159 0.0 2.0 0.00 0.00 0.00 50 1016.6
20260902061221 86 164 0.0 1.0 0.00 0.00 0.00 50 1016.7
20260902060718 86 212 0.0 1.0 0.00 0.00 0.00 50 1016.7
20260902060214 87 155 0.0 0.0 0.00 0.00 0.00 49 1016.5
20260902055709 87 155 1.0 2.0 0.00 0.00 0.00 49 1016.6
20260902055205 87 183 2.0 2.0 0.00 0.00 0.00 49 1016.5
20260902054700 87 145 2.0 2.0 0.00 0.00 0.00 49 1016.6
20260902054155 87 159 0.0 2.0 0.00 0.00 0.00 48 1016.5
20260902053650 87 193 2.0 3.0 0.00 0.00 0.00 49 1016.4